GW4533 Weather Reports


Display with metric or nautical units.
time (UTC)temp
F
wind
direction
speed
MPH
gust
MPH
rain 1hr
in
rain 24hr
in
rain mn
in
humidity
%
barometer
mb
20260505085922 62 264 3.0 4.0 0.00 0.00 0.00 70 1007.6
20260505085420 62 249 1.0 3.0 0.00 0.00 0.00 70 1007.5
20260505084918 62 266 3.0 9.0 0.00 0.00 0.00 69 1007.2
20260505084416 62 191 1.0 4.0 0.00 0.00 0.00 69 1007.2
20260505083914 63 165 4.0 6.0 0.00 0.00 0.00 68 1007.1
20260505083411 63 197 3.0 8.0 0.00 0.00 0.00 68 1006.9
20260505082907 63 194 3.0 6.0 0.00 0.00 0.00 67 1007.0
20260505082402 63 243 5.0 10.0 0.00 0.00 0.00 67 1007.1
20260505081900 63 249 3.0 3.0 0.00 0.00 0.00 66 1007.0
20260505081356 64 284 4.0 4.0 0.00 0.00 0.00 66 1006.8
20260505080853 64 99 5.0 9.0 0.00 0.00 0.00 65 1006.9
20260505080349 64 186 2.0 8.0 0.00 0.00 0.00 64 1006.8
20260505075845 65 206 4.0 8.0 0.00 0.00 0.00 63 1006.9
20260505075342 65 63 2.0 3.0 0.00 0.00 0.00 62 1006.8
20260505074839 65 350 1.0 3.0 0.00 0.00 0.00 62 1006.5
20260505074336 65 297 3.0 9.0 0.00 0.00 0.00 62 1006.8
20260505073833 65 241 3.0 6.0 0.00 0.00 0.00 64 1006.7
20260505073331 65 120 4.0 6.0 0.00 0.00 0.00 64 1006.6
20260505072828 66 270 5.0 8.0 0.00 0.00 0.00 59 1006.4
20260505072324 66 278 4.0 8.0 0.00 0.00 0.00 60 1006.4
20260505071820 66 220 4.0 6.0 0.00 0.00 0.00 60 1006.4
20260505071317 66 313 4.0 7.0 0.00 0.00 0.00 60 1006.1
20260505070815 66 225 6.0 9.0 0.00 0.00 0.00 58 1006.1
20260505070311 66 141 2.0 4.0 0.00 0.00 0.00 60 1006.4
20260505065806 66 135 2.0 4.0 0.00 0.00 0.00 60 1006.2
20260505065304 66 232 2.0 3.0 0.00 0.00 0.00 60 1006.2
20260505064800 66 155 3.0 4.0 0.00 0.00 0.00 59 1006.0
20260505064257 66 147 7.0 9.0 0.00 0.00 0.00 59 1006.0
20260505063755 66 274 4.0 8.0 0.00 0.00 0.00 60 1006.3
20260505063252 66 278 3.0 4.0 0.00 0.00 0.00 61 1006.4
20260505062749 66 180 2.0 3.0 0.00 0.00 0.00 61 1006.4
20260505062246 65 225 1.0 2.0 0.00 0.00 0.00 63 1006.2
20260505061742 65 199 3.0 4.0 0.00 0.00 0.00 63 1006.4
20260505061240 65 227 0.0 0.0 0.00 0.00 0.00 64 1006.4
20260505060737 66 204 3.0 4.0 0.00 0.00 0.00 62 1006.4
20260505060235 66 204 3.0 4.0 0.00 0.00 0.00 62 1006.5
20260505055729 66 354 3.0 4.0 0.00 0.00 0.00 62 1006.7
20260505055226 0 0.0 0.0 0.00 0.00 0.00 1006.6
20260505054724 65 149 2.0 4.0 0.00 0.00 0.00 63 1006.8
20260505054221 0 0.0 0.0 0.00 0.00 0.00 1006.6
20260505053720 0 0.0 0.0 0.00 0.00 0.00 1006.6
20260505053215 0 0.0 0.0 0.00 0.00 0.00 1006.8
20260505052713 0 0.0 0.0 0.00 0.00 0.00 1006.9
20260505052209 65 301 5.0 7.0 0.00 0.00 0.00 65 1006.8
20260505051707 65 301 5.0 7.0 0.00 0.00 0.00 65 1007.0
20260505051205 65 154 4.0 6.0 0.00 0.00 0.00 64 1007.0
20260505050657 0 0.0 0.0 0.00 0.00 0.00 1006.9
20260505050155 0 0.0 0.0 0.00 0.00 0.00 1007.2
20260505041625 0 0.0 0.0 0.00 0.00 0.00 1007.1
20260505041123 0 0.0 0.0 0.00 0.00 0.00 1007.3
20260505040619 0 0.0 0.0 0.00 0.00 0.00 1007.2
20260505040117 0 0.0 0.0 0.00 0.00 0.00 1007.3
20260505035613 64 132 2.0 2.0 0.00 0.00 0.00 70 1007.2
20260505035109 64 132 2.0 2.0 0.00 0.00 0.00 70 1007.2
20260505034606 0 0.0 0.0 0.00 0.00 0.00 1007.2
20260505034103 0 0.0 0.0 0.00 0.00 0.00 1007.2
20260505033559 0 0.0 0.0 0.00 0.00 0.00 1007.2
20260505033058 64 255 3.0 6.0 0.00 0.00 0.00 69 1007.5
20260505032555 64 255 3.0 6.0 0.00 0.00 0.00 69 1007.1
20260505032051 0 0.0 0.0 0.00 0.00 0.00 1007.6
20260505031549 0 0.0 0.0 0.00 0.00 0.00 1007.6
20260505031045 0 0.0 0.0 0.00 0.00 0.00 1007.2
20260505030542 0 0.0 0.0 0.00 0.00 0.00 1007.2
20260505030038 0 0.0 0.0 0.00 0.00 0.00 1007.6
20260505025534 0 0.0 0.0 0.00 0.00 0.00 1007.5
20260505025033 0 0.0 0.0 0.00 0.00 0.00 1007.5
20260505024530 0 0.0 0.0 0.00 0.00 0.00 1007.3
20260505024027 0 0.0 0.0 0.00 0.00 0.00 1007.3
20260505023524 0 0.0 0.0 0.00 0.00 0.00 1007.2
20260505023022 0 0.0 0.0 0.00 0.00 0.00 1007.3
20260505022519 0 0.0 0.0 0.00 0.00 0.00 1007.3
20260505022016 64 188 2.0 3.0 0.00 0.00 0.00 67 1007.6
20260505021513 64 188 2.0 3.0 0.00 0.00 0.00 67 1007.6
20260505021009 64 169 1.0 4.0 0.00 0.00 0.00 68 1007.5
20260505020508 64 149 2.0 6.0 0.00 0.00 0.00 68 1007.5
20260505020006 64 165 2.0 3.0 0.00 0.00 0.00 67 1007.5
20260505015503 64 197 2.0 3.0 0.00 0.00 0.00 67 1007.5
20260505015000 64 139 2.0 2.0 0.00 0.00 0.00 67 1007.3
20260505014457 64 168 1.0 2.0 0.00 0.00 0.00 66 1007.2
20260505013954 64 264 1.0 3.0 0.00 0.00 0.00 66 1007.2
20260505013451 64 164 2.0 3.0 0.00 0.00 0.00 65 1007.5
20260505012948 64 141 2.0 4.0 0.00 0.00 0.00 65 1007.3
20260505012446 65 189 2.0 3.0 0.00 0.00 0.00 64 1007.3
20260505011943 65 193 0.0 2.0 0.00 0.00 0.00 64 1007.5
20260505011439 65 243 1.0 2.0 0.00 0.00 0.00 64 1007.3
20260505010936 65 233 2.0 2.0 0.00 0.00 0.00 64 1007.3
20260505010431 65 205 0.0 0.0 0.00 0.00 0.00 63 1007.2
20260505005928 65 205 1.0 3.0 0.00 0.00 0.00 63 1007.0
20260505005425 65 246 2.0 3.0 0.00 0.00 0.00 62 1007.1
20260505004922 65 234 1.0 2.0 0.00 0.00 0.00 62 1007.1
20260505004418 0 0.0 0.0 0.00 0.00 0.00 1007.1
20260505003915 0 0.0 0.0 0.00 0.00 0.00 1007.1
20260505003413 0 0.0 0.0 0.00 0.00 0.00 1007.1
20260505002909 0 0.0 0.0 0.00 0.00 0.00 1007.0
20260505002405 0 0.0 0.0 0.00 0.00 0.00 1007.1
20260505001904 0 0.0 0.0 0.00 0.00 0.00 1007.1
20260505001401 66 196 4.0 4.0 0.00 0.00 0.00 58 1006.9
20260505000858 66 196 4.0 4.0 0.00 0.00 0.00 58 1006.9
20260505000358 67 275 2.0 3.0 0.00 0.00 0.00 57 1007.1
20260504235852 67 275 2.0 3.0 0.00 0.00 0.00 57 1007.0
20260504235349 0 0.0 0.0 0.00 0.00 0.00 1007.0
20260504234845 0 0.0 0.0 0.00 0.00 0.00 1006.9
20260504234343 0 0.0 0.0 0.00 0.00 0.00 1006.7
20260504233840 0 0.0 0.0 0.00 0.00 0.00 1006.6
20260504233335 0 0.0 0.0 0.00 0.00 0.00 1006.6
20260504232833 0 0.0 0.0 0.00 0.00 0.00 1006.5
20260504232329 0 0.0 0.0 0.00 0.00 0.00 1006.4
20260504231826 70 274 3.0 4.0 0.00 0.00 0.00 50 1006.3
20260504231323 70 274 3.0 4.0 0.00 0.00 0.00 50 1006.2
20260504230819 0 0.0 0.0 0.00 0.00 0.00 1006.4
20260504230317 0 0.0 0.0 0.00 0.00 0.00 1006.6
20260504225816 70 327 4.0 6.0 0.00 0.00 0.00 50 1006.5
20260504225311 0 0.0 0.0 0.00 0.00 0.00 1006.6
20260504224809 0 0.0 0.0 0.00 0.00 0.00 1006.6
20260504224306 70 247 6.0 8.0 0.00 0.00 0.00 51 1006.7
20260504223802 70 247 6.0 8.0 0.00 0.00 0.00 51 1006.8
20260504223258 70 281 6.0 8.0 0.00 0.00 0.00 51 1007.0
20260504222755 70 213 4.0 6.0 0.00 0.00 0.00 53 1006.9
20260504222252 71 287 6.0 10.0 0.00 0.00 0.00 52 1006.8
20260504221750 71 246 4.0 8.0 0.00 0.00 0.00 53 1007.0
20260504221247 71 225 1.0 2.0 0.00 0.00 0.00 54 1006.9
20260504220743 71 178 2.0 3.0 0.00 0.00 0.00 53 1006.8
20260504220240 71 299 4.0 6.0 0.00 0.00 0.00 54 1006.9
20260504215737 70 115 3.0 8.0 0.00 0.00 0.00 54 1006.9
20260504215234 70 290 6.0 11.0 0.00 0.00 0.00 54 1007.2
20260504214730 71 282 5.0 10.0 0.00 0.00 0.00 54 1007.1
20260504214226 70 263 4.0 8.0 0.00 0.00 0.00 55 1007.1
20260504213723 70 243 2.0 7.0 0.00 0.00 0.00 54 1007.2
20260504213220 70 269 2.0 6.0 0.00 0.00 0.00 55 1007.0
20260504212717 71 261 4.0 10.0 0.00 0.00 0.00 54 1007.2
20260504212214 71 305 2.0 4.0 0.00 0.00 0.00 54 1007.3
20260504211711 71 262 6.0 10.0 0.00 0.00 0.00 54 1006.9
20260504211207 71 258 4.0 6.0 0.00 0.00 0.00 53 1007.0
20260504210704 72 171 2.0 4.0 0.00 0.00 0.00 51 1007.0
20260504210201 72 240 3.0 9.0 0.00 0.00 0.00 51 1006.9
20260504205658 73 256 4.0 8.0 0.00 0.00 0.00 51 1006.7
20260504205155 73 127 4.0 8.0 0.00 0.00 0.00 50 1006.6
20260504204654 72 174 4.0 10.0 0.00 0.00 0.00 52 1007.0
20260504204152 72 141 2.0 9.0 0.00 0.00 0.00 51 1007.1
20260504203651 72 289 5.0 10.0 0.00 0.00 0.00 53 1007.1
20260504203149 71 265 6.0 13.0 0.00 0.00 0.00 53 1007.2
20260504202648 71 193 4.0 7.0 0.00 0.00 0.00 54 1007.2
20260504202146 71 286 1.0 10.0 0.00 0.00 0.00 53 1007.6
20260504201643 71 256 6.0 9.0 0.00 0.00 0.00 53 1007.3
20260504201140 71 296 5.0 8.0 0.00 0.00 0.00 55 1007.6
20260504200637 71 204 5.0 9.0 0.00 0.00 0.00 53 1007.3
20260504200134 71 274 2.0 4.0 0.00 0.00 0.00 54 1007.5
20260504195630 72 238 4.0 8.0 0.00 0.00 0.00 53 1007.6
20260504195126 72 248 3.0 10.0 0.00 0.00 0.00 52 1007.5
20260504194623 72 284 3.0 10.0 0.00 0.00 0.00 52 1007.5
20260504194119 72 216 4.0 8.0 0.00 0.00 0.00 53 1007.7
20260504193615 71 214 3.0 8.0 0.00 0.00 0.00 52 1008.0
20260504193114 72 294 4.0 7.0 0.00 0.00 0.00 54 1007.8
20260504192612 73 314 4.0 7.0 0.00 0.00 0.00 51 1008.1
20260504192109 72 152 3.0 6.0 0.00 0.00 0.00 52 1008.0
20260504191608 71 292 1.0 7.0 0.00 0.00 0.00 55 1008.0
20260504191103 71 162 3.0 6.0 0.00 0.00 0.00 52 1008.0
20260504190600 70 198 8.0 10.0 0.00 0.00 0.00 52 1008.2
20260504190056 71 275 3.0 6.0 0.00 0.00 0.00 52 1008.1
20260504185553 71 282 2.0 8.0 0.00 0.00 0.00 54 1008.2
20260504185050 71 176 8.0 9.0 0.00 0.00 0.00 52 1008.2
20260504184545 71 288 4.0 7.0 0.00 0.00 0.00 53 1008.5
20260504184040 70 178 3.0 7.0 0.00 0.00 0.00 54 1008.3
20260504183538 70 220 8.0 10.0 0.00 0.00 0.00 52 1008.4
20260504183036 71 258 3.0 7.0 0.00 0.00 0.00 53 1008.6
20260504182532 71 282 3.0 4.0 0.00 0.00 0.00 55 1008.6
20260504182030 70 121 3.0 6.0 0.00 0.00 0.00 53 1008.6
20260504181527 70 281 0.0 10.0 0.00 0.00 0.00 54 1008.8
20260504181025 71 227 6.0 8.0 0.00 0.00 0.00 53 1008.8
20260504180524 69 284 2.0 8.0 0.00 0.00 0.00 56 1008.8
20260504180022 69 241 6.0 11.0 0.00 0.00 0.00 54 1008.5
20260504175519 69 139 3.0 4.0 0.00 0.00 0.00 54 1008.5
20260504175016 68 332 4.0 10.0 0.00 0.00 0.00 56 1008.7
20260504174514 69 244 5.0 6.0 0.00 0.00 0.00 55 1008.8
20260504174011 68 243 2.0 11.0 0.00 0.00 0.00 56 1008.9
20260504173507 68 266 2.0 7.0 0.00 0.00 0.00 55 1008.9
20260504173005 67 281 2.0 6.0 0.00 0.00 0.00 58 1008.9
20260504172501 67 161 4.0 10.0 0.00 0.00 0.00 58 1009.0
20260504171957 67 273 5.0 9.0 0.00 0.00 0.00 57 1009.1
20260504171454 68 163 2.0 6.0 0.00 0.00 0.00 54 1009.0
20260504170951 68 250 2.0 4.0 0.00 0.00 0.00 54 1009.0
20260504170447 68 277 2.0 4.0 0.00 0.00 0.00 57 1009.3
20260504160407 65 263 5.0 10.0 0.00 0.00 0.00 55 1010.0
20260504150831 64 259 1.0 4.0 0.00 0.00 0.00 57 1009.7
20260504150328 63 234 0.0 6.0 0.00 0.00 0.00 58 1009.8
20260504141258 61 295 2.0 3.0 0.00 0.00 0.00 60 1010.0
20260504140754 61 252 3.0 4.0 0.00 0.00 0.00 59 1010.5
20260504140250 60 286 3.0 4.0 0.00 0.00 0.00 60 1010.5
20260504130719 57 242 2.0 2.0 0.00 0.00 0.00 62 1010.8
20260504130214 56 228 2.0 3.0 0.00 0.00 0.00 64 1010.6
20260504120139 53 5 3.0 4.0 0.00 0.00 0.00 65 1010.9
20260504110606 49 104 4.0 4.0 0.00 0.00 0.00 68 1010.5
20260504100523 49 184 0.0 2.0 0.00 0.00 0.00 68 1010.5